Home > Time Zones > World Clock > Weather > U.S.A. > Mesa > Past weeks

Flag for U.S.A. Weather past 2 weeks in Mesa, Arizona, U.S.A.

Now
63 °F

Clear.


Feels Like: 63 °F
Forecast: 64 / 88 °F
Wind: 3 mph from Southeast

Location: Williams Gateway Airport

Current Time: Oct 22, 2014 at 2:49:31 AM

Latest Report: Oct 22, 2014 at 2:15 AM


Visibility: 10 mi

Pressure: 29.89 "Hg

Humidity: 68%

Dew point: 52 °F

Location of MesaLocation

Historic Weather in Mesa — Graph

°F

Mesa temperature yesterday

Maximum temperature yesterday: 86 °F (at 1:47 PM)
Minimum temperature yesterday: 61 °F (at 1:35 AM)
Average temperature yesterday: 72 °F

Past Weeks' High & Low Weather Summary

 TemperatureHumidityPressure
High90 °F (Oct 12, 3:47 PM)100% (Oct 9, 1:15 AM)30.08 "Hg (Oct 9, 1:15 AM)
Low55 °F (Oct 13, 6:47 AM)12% (Oct 13, 3:47 PM)29.78 "Hg (Oct 18, 5:49 PM)
Average70 °F57%29.92 "Hg
* Reported Oct 7 1:15 AM — Oct 22 1:55 AM, Mesa, Weather by CustomWeather, © 2014

Note: Actual official high and low records may vary slightly from our data, if they occured in-between our weather recording intervals... More about our weather records

Advertising

Mesa weather history for previous 24 hours

 ConditionsComfort  
Time TempWeatherWind HumidityBarometerVisibility
1:55 AM
Oct 22
64 °FClear.6 mph64%29.89 "Hg10 mi
1:35 AM64 °FClear.6 mph64%29.89 "Hg10 mi
1:15 AM64 °FClear.6 mph64%29.89 "Hg10 mi
12:55 AM66 °FClear.7 mph60%29.89 "Hg10 mi
12:35 AM66 °FClear.7 mph60%29.89 "Hg10 mi
12:15 AM66 °FClear.5 mph60%29.89 "Hg10 mi
11:47 PM
Oct 21
68 °FPassing clouds.6 mph60%29.88 "Hg20 mi
10:47 PM70 °FPassing clouds.7 mph53%29.87 "Hg20 mi
9:47 PM70 °FPassing clouds.No wind57%29.87 "Hg20 mi
8:47 PM73 °FPassing clouds.3 mph47%29.86 "Hg20 mi
7:47 PM77 °FPassing clouds.No wind39%29.85 "Hg20 mi
6:47 PM81 °FPassing clouds.No wind32%29.84 "Hg20 mi
5:47 PM82 °FPassing clouds.No wind32%29.82 "Hg20 mi
3:47 PM84 °FPartly sunny.5 mph29%29.83 "Hg45 mi
2:47 PM86 °FPassing clouds.No wind29%29.84 "Hg45 mi
1:47 PM86 °FPassing clouds.7 mph29%29.85 "Hg45 mi
12:47 PM84 °FPassing clouds.8 mph33%29.87 "Hg45 mi
11:47 AM84 °FPassing clouds.8 mph33%29.90 "Hg45 mi
10:47 AM82 °FPassing clouds.3 mph35%29.93 "Hg45 mi
9:47 AM79 °FPassing clouds.No wind42%29.94 "Hg45 mi
8:47 AM73 °FPassing clouds.5 mph50%29.93 "Hg45 mi
7:47 AM66 °FSunny.3 mph60%29.92 "Hg45 mi
6:47 AM64 °FSunny.6 mph64%29.90 "Hg45 mi
5:47 AM64 °FClear.6 mph64%29.89 "Hg20 mi
4:47 AM64 °FClear.6 mph64%29.88 "Hg20 mi
4:35 AM64 °FClear.No wind64%29.88 "Hg10 mi
4:15 AM63 °FClear.3 mph64%29.88 "Hg10 mi
3:55 AM64 °FClear.6 mph60%29.88 "Hg10 mi
3:15 AM64 °FClear.3 mph60%29.88 "Hg10 mi
2:55 AM64 °FClear.6 mph60%29.88 "Hg10 mi
2:15 AM66 °FClear.No wind60%29.89 "Hg10 mi
Weather by CustomWeather, © 2014

See weather overviewHow to use our weather pages